Date,TemperatureHighF,TemperatureAvgF,TemperatureLowF,DewpointHighF,DewpointAvgF,DewpointLowF,HumidityHigh,HumidityAvg,HumidityLow,PressureMaxIn,PressureMinIn,WindSpeedMaxMPH,WindSpeedAvgMPH,GustSpeedMaxMPH,PrecipitationSumIn
2013-1-1,34.4,26.5,22.3,23.5,20.0,15.0,90,77,62,0.00,40.00,0,0,0,0.00
2013-1-2,45.4,31.7,23.4,26.7,19.1,14.3,70,61,36,0.00,40.00,0,0,0,0.00
2013-1-3,42.8,33.0,27.7,22.3,19.0,14.1,69,58,31,0.00,40.00,0,0,0,0.00
2013-1-4,44.5,33.0,26.5,23.9,19.8,17.0,70,60,37,0.00,40.00,0,0,0,0.00
2013-1-5,43.6,32.6,0.0,21.6,19.6,0.0,70,56,37,0.00,40.00,0,0,0,0.00
2013-1-6,32.6,28.6,24.5,28.2,24.6,16.8,91,86,54,0.00,40.00,0,0,0,0.43
2013-1-7,39.6,29.9,21.2,35.6,25.7,18.7,91,84,73,0.00,40.00,0,0,0,0.02
2013-1-8,50.6,38.7,33.1,30.3,27.7,25.4,76,66,44,0.00,40.00,0,0,0,0.00
2013-1-9,50.9,40.8,34.7,33.0,29.8,27.8,91,66,44,0.00,40.00,0,0,0,0.00
2013-1-10,32.9,22.8,19.6,31.2,20.1,16.4,94,89,85,0.00,40.00,0,0,0,0.19
2013-1-11,24.3,20.1,18.2,18.1,16.1,13.2,90,85,74,0.00,40.00,0,0,0,0.02
2013-1-12,26.3,18.5,13.5,17.9,14.0,10.1,87,83,69,0.00,40.00,0,0,0,0.02
2013-1-13,26.1,18.3,13.1,17.9,13.1,9.7,87,81,60,0.00,40.00,0,0,0,0.00
2013-1-14,28.4,18.7,11.0,16.4,9.1,4.2,82,68,42,0.00,40.00,0,0,0,0.00
2013-1-15,41.8,28.9,18.2,22.9,17.0,10.4,71,62,41,0.00,40.00,0,0,0,0.00
2013-1-16,50.8,37.4,28.8,28.5,22.9,19.3,70,57,35,0.00,40.00,0,0,0,0.00
2013-1-17,50.9,37.6,31.3,22.0,16.3,13.8,62,43,24,0.00,40.00,0,0,0,0.00
2013-1-18,50.0,36.8,30.6,17.5,13.5,11.1,47,39,21,0.00,40.00,0,0,0,0.00
2013-1-19,52.0,37.3,31.1,18.2,13.0,10.1,46,37,25,0.00,40.00,0,0,0,0.00
2013-1-20,52.4,38.2,31.0,16.1,12.5,9.2,46,36,20,0.00,40.00,0,0,0,0.00
2013-1-21,56.5,40.5,32.9,22.2,14.5,8.8,48,36,17,0.00,40.00,0,0,0,0.00
2013-1-22,54.5,40.0,34.9,21.6,16.4,14.0,46,39,24,0.00,40.00,0,0,0,0.00
2013-1-23,48.2,41.0,36.4,35.0,25.0,15.9,90,55,37,0.00,40.00,0,0,0,0.04
2013-1-24,45.4,40.0,36.5,43.7,38.1,33.8,95,93,90,0.00,40.00,0,0,0,0.73
2013-1-25,42.5,40.1,38.7,41.1,38.6,37.1,96,95,94,0.00,40.00,0,0,0,0.12
2013-1-26,41.6,39.4,36.4,40.5,38.2,34.7,96,95,94,0.00,40.00,0,0,0,0.08
2013-1-27,36.4,28.9,24.1,34.7,26.8,20.8,95,92,85,0.00,40.00,0,0,0,0.04
2013-1-28,25.6,24.8,23.4,23.6,22.8,21.6,94,92,88,0.00,40.00,0,0,0,0.02
2013-1-29,32.4,28.9,24.5,30.3,26.8,23.0,94,92,86,0.00,40.00,0,0,0,0.00
2013-1-30,50.8,37.5,30.6,34.9,31.1,28.4,94,79,47,0.00,40.00,0,0,0,0.00
2013-1-31,54.7,41.0,33.5,34.3,29.3,25.5,80,65,35,0.00,40.00,0,0,0,0.00
2013-2-1,59.0,43.0,35.6,37.5,30.6,27.6,73,63,39,0.00,40.00,0,0,0,0.00
2013-2-2,54.2,44.5,38.7,35.5,29.2,23.6,67,56,32,0.00,40.00,0,0,0,0.00
2013-2-3,51.1,42.8,37.3,35.5,29.7,26.0,72,60,50,0.00,40.00,0,0,0,0.00
2013-2-4,56.7,43.0,35.3,29.7,26.4,23.8,71,53,32,0.00,40.00,0,0,0,0.00
2013-2-5,56.0,43.4,37.3,34.7,27.9,23.9,89,56,31,0.00,40.00,0,0,0,0.00
2013-2-6,48.1,37.5,32.4,36.5,29.1,18.9,91,73,41,0.00,40.00,0,0,0,0.00
2013-2-7,51.8,34.9,27.5,30.2,19.8,9.7,88,58,22,0.00,40.00,0,0,0,0.00
2013-2-8,27.0,24.8,23.4,24.8,22.2,20.3,92,90,85,0.00,40.00,0,0,0,0.69
2013-2-9,30.1,24.6,20.7,24.3,21.4,17.3,93,87,79,0.00,40.00,0,0,0,0.10
2013-2-10,38.3,25.8,19.8,24.9,20.7,16.7,89,82,54,0.00,40.00,0,0,0,0.02
2013-2-11,39.4,27.5,20.2,26.1,20.3,16.5,86,76,43,0.00,40.00,0,0,0,0.00
2013-2-12,44.1,31.3,23.4,25.9,21.2,17.6,81,68,38,0.00,40.00,0,0,0,0.00
2013-2-13,51.8,36.7,28.1,27.4,21.1,17.4,73,55,28,0.00,40.00,0,0,0,0.00
2013-2-14,56.3,39.8,32.0,27.4,23.5,20.9,65,53,31,0.00,40.00,0,0,0,0.00
2013-2-15,60.5,42.8,33.1,25.9,22.2,18.9,65,46,22,0.00,40.00,0,0,0,0.00
2013-2-16,56.0,42.6,34.9,29.5,18.1,12.5,52,39,18,0.00,40.00,0,0,0,0.00
2013-2-17,49.5,40.4,35.3,30.9,23.4,14.3,71,51,39,0.00,40.00,0,0,0,0.00
2013-2-18,54.4,39.5,31.3,34.0,26.3,21.3,79,61,30,0.00,40.00,0,0,0,0.00
2013-2-19,34.6,28.1,20.5,29.5,25.3,18.3,93,89,79,0.00,40.00,0,0,0,0.47
2013-2-20,32.0,22.9,19.6,26.9,19.8,17.1,92,88,81,0.00,40.00,0,0,0,0.17
2013-2-21,37.1,27.1,21.6,26.4,22.1,18.3,91,82,60,0.00,40.00,0,0,0,0.02
2013-2-22,45.5,30.6,21.4,31.0,22.9,17.8,89,75,42,0.00,40.00,0,0,0,0.00
2013-2-23,36.4,32.0,29.2,29.9,26.6,18.7,93,81,60,0.00,40.00,0,0,0,0.00
2013-2-24,43.7,32.0,23.8,27.9,18.6,10.6,93,63,28,0.00,40.00,0,0,0,0.00
2013-2-25,47.7,34.4,27.0,28.1,22.5,17.5,80,63,38,0.00,40.00,0,0,0,0.00
2013-2-26,49.0,35.3,26.5,33.8,24.9,19.3,79,68,36,0.00,40.00,0,0,0,0.00
2013-2-27,50.8,36.5,27.9,30.5,21.1,14.9,70,55,29,0.00,40.00,0,0,0,0.00
2013-2-28,53.6,40.0,30.8,32.9,25.0,19.4,65,56,33,0.00,40.00,0,0,0,0.00
2013-3-1,62.6,45.7,35.3,28.8,25.5,22.5,66,47,25,0.00,40.00,0,0,0,0.00
2013-3-2,61.4,48.5,40.0,31.3,26.4,22.2,53,43,25,0.00,40.00,0,0,0,0.00
2013-3-3,46.4,43.0,38.2,35.0,31.1,23.2,79,64,40,0.00,40.00,0,0,0,0.00
2013-3-4,55.1,42.6,36.2,41.1,34.7,30.2,83,74,48,0.00,40.00,0,0,0,0.00
2013-3-5,59.0,43.7,36.0,36.8,31.1,26.0,79,63,31,0.00,40.00,0,0,0,0.00
2013-3-6,36.7,34.5,30.6,32.6,30.5,26.8,93,86,70,0.00,40.00,0,0,0,0.02
2013-3-7,39.4,34.0,30.6,33.1,29.4,26.5,91,83,72,0.00,40.00,0,0,0,0.02
2013-3-8,32.4,29.2,27.5,28.5,26.6,24.7,94,90,83,0.00,40.00,0,0,0,0.47
2013-3-9,36.4,30.7,28.4,32.2,28.7,26.9,95,92,85,0.00,40.00,0,0,0,0.02
2013-3-10,54.0,38.6,28.1,39.1,29.1,24.0,93,72,31,0.00,40.00,0,0,0,0.00
2013-3-11,61.9,45.3,35.6,36.8,24.9,16.1,71,48,21,0.00,40.00,0,0,0,0.00
2013-3-12,65.2,50.6,40.5,39.5,26.5,16.5,62,43,16,0.00,40.00,0,0,0,0.00
2013-3-13,70.0,54.6,43.9,42.8,31.2,24.1,62,44,21,0.00,40.00,0,0,0,0.00
2013-3-14,72.7,56.8,47.3,37.8,32.4,25.6,58,42,18,0.00,40.00,0,0,0,0.00
2013-3-15,66.6,54.4,46.8,49.0,38.1,26.9,75,55,41,0.00,40.00,0,0,0,0.00
2013-4-5,49.5,44.4,41.9,41.1,38.6,36.5,86,80,73,0.00,40.00,0,0,0,0.00
2013-4-6,50.9,43.8,40.1,41.2,36.7,30.6,86,76,63,0.00,40.00,0,0,0,0.00
2013-4-7,52.2,45.2,40.5,42.4,38.1,34.7,83,76,65,0.00,40.00,0,0,0,0.00
2013-4-8,41.8,32.4,27.2,37.8,29.8,25.0,94,90,82,0.00,40.00,0,0,0,0.69
2013-4-9,46.6,36.5,28.1,32.9,28.7,23.9,89,74,57,0.00,40.00,0,0,0,0.02
2013-4-10,58.1,44.8,32.8,33.8,28.2,20.2,78,54,36,0.00,40.00,0,0,0,0.00
2013-4-11,57.4,48.9,41.4,40.9,34.2,23.9,79,58,40,0.00,40.00,0,0,0,0.00
2013-4-12,65.0,50.9,41.4,45.3,40.7,36.3,86,70,44,0.00,40.00,0,0,0,0.00
2013-4-13,58.0,55.9,53.3,41.8,40.5,39.9,65,56,52,0.00,40.00,0,0,0,0.00
2013-4-14,53.6,48.8,44.1,42.9,37.5,28.7,78,66,52,0.00,40.00,0,0,0,0.00
2013-4-15,43.6,39.6,31.9,35.6,30.2,27.0,82,69,52,0.00,40.00,0,0,0,0.00
2013-4-16,37.3,28.2,24.5,25.1,23.0,21.2,91,82,56,0.00,40.00,0,0,0,0.00
2013-4-17,44.5,41.5,37.6,24.4,22.5,19.6,50,47,43,0.00,40.00,0,0,0,0.00
2013-4-18,54.7,52.2,50.6,26.7,23.9,20.3,38,33,29,0.00,40.00,0,0,0,0.00
2013-4-19,57.6,50.2,40.7,28.6,26.5,23.0,51,40,32,0.00,40.00,0,0,0,0.00
2013-4-20,66.4,52.5,41.9,40.6,34.0,25.9,62,51,22,0.00,40.00,0,0,0,0.00
2013-4-21,67.5,55.4,43.4,41.9,37.5,32.8,68,52,38,0.00,40.00,0,0,0,0.00
2013-4-22,65.3,56.7,48.2,39.5,35.7,31.9,57,46,36,0.00,40.00,0,0,0,0.00
2013-4-23,69.5,56.7,46.1,38.8,34.4,26.2,64,45,21,0.00,40.00,0,0,0,0.00
2013-4-24,70.2,55.2,43.2,32.2,25.4,17.3,57,35,16,0.00,40.00,0,0,0,0.00
2013-4-25,60.1,49.8,43.0,43.4,32.9,18.8,77,54,36,0.00,40.00,0,0,0,0.00
2013-4-26,68.8,53.8,42.5,46.8,40.6,33.0,85,63,30,0.00,40.00,0,0,0,0.00
2013-4-27,71.5,58.7,45.7,43.9,37.8,33.3,68,48,31,0.00,40.00,0,0,0,0.00
2013-4-28,72.0,59.4,52.0,47.3,41.0,34.9,66,51,40,0.00,40.00,0,0,0,0.00
2013-4-29,71.5,63.6,54.0,45.9,44.3,41.5,64,50,39,0.00,40.00,0,0,0,0.00
2013-4-30,66.4,58.4,52.4,45.0,40.3,33.9,60,51,41,0.00,40.00,0,0,0,0.00
2013-5-1,73.1,52.6,0.0,39.9,21.2,0.0,68,30,11,0.00,40.00,0,0,0,0.00
2013-5-2,69.5,56.2,44.5,24.0,9.7,2.8,29,16,7,0.00,40.00,0,0,0,0.00
2013-5-3,72.5,58.7,46.4,31.5,18.3,7.6,36,21,12,0.00,40.00,0,0,0,0.00
2013-5-4,67.7,56.8,51.3,33.2,26.8,14.8,47,33,21,0.00,40.00,0,0,0,0.00
2013-5-5,61.9,52.5,44.3,34.6,27.4,14.9,66,40,22,0.00,40.00,0,0,0,0.00
2013-5-6,48.4,42.2,37.8,42.0,36.5,30.3,92,80,66,0.00,40.00,0,0,0,1.38
2013-5-7,43.2,40.0,37.6,39.6,37.2,35.8,94,90,83,0.00,40.00,0,0,0,0.06
2013-5-8,52.0,44.8,39.2,44.3,40.6,35.8,93,85,74,0.00,40.00,0,0,0,0.04
2013-5-9,55.6,47.2,41.9,46.8,43.4,39.7,92,87,72,0.00,40.00,0,0,0,0.25
2013-5-10,67.1,56.6,43.9,52.4,46.3,41.2,92,70,45,0.00,40.00,0,0,0,0.02
2013-5-11,77.8,62.3,49.3,48.7,42.6,36.7,73,52,24,0.00,40.00,0,0,0,0.00
2013-5-12,76.0,65.2,55.1,50.1,45.0,40.6,67,50,29,0.00,40.00,0,0,0,0.00
2013-5-13,79.9,67.0,55.1,49.7,42.4,35.9,65,43,23,0.00,40.00,0,0,0,0.00
2013-5-14,74.2,62.0,54.4,43.1,35.3,20.8,59,39,15,0.00,40.00,0,0,0,0.00
2013-5-15,67.0,59.7,52.7,47.3,41.8,36.1,71,52,40,0.00,40.00,0,0,0,0.00
2013-5-16,62.3,51.5,45.0,42.4,38.9,32.2,81,63,46,0.00,40.00,0,0,0,0.00
2013-5-17,52.9,47.8,43.7,41.9,39.5,36.0,84,73,62,0.00,40.00,0,0,0,0.00
2013-5-18,58.9,50.6,42.5,36.6,34.2,31.9,67,54,43,0.00,40.00,0,0,0,0.00
2013-5-19,64.4,54.4,44.5,42.0,36.1,31.1,62,51,37,0.00,40.00,0,0,0,0.00
2013-5-20,73.1,58.4,45.7,41.1,36.9,30.0,76,49,22,0.00,40.00,0,0,0,0.00
2013-5-21,68.9,58.3,0.0,36.6,28.9,0.0,45,31,22,0.00,40.00,0,0,0,0.00
2013-5-22,53.3,47.2,40.9,35.9,32.5,28.2,71,57,47,0.00,40.00,0,0,0,0.00
2013-5-23,52.2,45.2,39.2,29.4,23.8,13.7,60,44,33,0.00,40.00,0,0,0,0.00
2013-5-24,64.1,50.9,37.6,34.6,30.8,25.0,64,48,23,0.00,40.00,0,0,0,0.00
2013-5-25,60.3,52.4,45.2,35.1,32.2,26.3,59,47,36,0.00,40.00,0,0,0,0.00
2013-5-26,56.5,51.4,47.2,40.0,34.0,26.3,70,52,40,0.00,40.00,0,0,0,0.00
2013-5-27,61.2,51.1,46.4,42.4,38.2,32.5,74,62,49,0.00,40.00,0,0,0,0.00
2013-5-28,51.8,48.2,44.1,46.5,42.0,38.0,84,79,72,0.00,40.00,0,0,0,0.00
2013-5-29,59.8,51.9,45.0,46.4,43.9,40.8,86,75,60,0.00,40.00,0,0,0,0.00
2013-5-31,73.1,66.0,58.0,43.8,41.9,36.1,49,42,35,0.00,40.00,0,0,0,0.00
2013-6-1,84.4,68.8,55.8,44.5,34.0,23.7,48,31,11,0.00,40.00,0,0,0,0.00
2013-6-2,81.7,69.2,58.0,42.7,36.1,24.2,40,30,23,0.00,40.00,0,0,0,0.00
2013-6-3,83.0,67.7,56.9,47.8,42.0,36.6,54,40,22,0.00,40.00,0,0,0,0.00
2013-6-4,77.6,67.0,56.5,51.5,47.4,40.0,64,50,37,0.00,40.00,0,0,0,0.00
2013-6-5,87.1,69.0,55.1,53.8,47.9,34.4,69,51,16,0.00,40.00,0,0,0,0.00
2013-6-6,88.6,71.0,57.6,54.7,47.6,37.4,59,46,17,0.00,40.00,0,0,0,0.00
2013-6-7,92.5,74.7,59.4,54.7,45.0,31.2,59,39,12,0.00,40.00,0,0,0,0.00
2013-6-8,96.5,78.9,63.9,55.8,41.5,31.1,50,29,10,0.00,40.00,0,0,0,0.00
2013-6-9,88.6,73.9,62.3,55.4,47.9,35.6,60,42,16,0.00,40.00,0,0,0,0.00
2013-6-10,68.4,60.3,54.2,45.4,37.7,24.8,60,44,28,0.00,40.00,0,0,0,0.00
2013-6-11,80.3,66.5,54.4,46.0,39.8,33.2,57,40,21,0.00,40.00,0,0,0,0.00
2013-6-12,78.8,67.0,56.9,49.0,40.4,32.7,49,39,25,0.00,40.00,0,0,0,0.00
2013-6-13,67.9,60.1,53.8,41.8,34.1,30.0,55,39,28,0.00,40.00,0,0,0,0.00
2013-6-14,78.5,62.5,47.5,40.7,32.9,22.4,51,35,13,0.00,40.00,0,0,0,0.00
2013-6-15,75.2,63.6,51.8,39.9,34.3,31.0,50,35,23,0.00,40.00,0,0,0,0.00
2013-6-16,72.4,62.9,56.3,39.2,34.6,29.3,45,35,28,0.00,40.00,0,0,0,0.00
2013-6-17,72.4,63.2,56.9,43.2,39.0,32.8,55,41,30,0.00,40.00,0,0,0,0.00
2013-6-18,68.9,59.8,51.1,43.3,38.8,33.0,62,46,38,0.00,40.00,0,0,0,0.00
2013-6-19,61.7,52.3,43.9,41.6,38.1,33.7,73,59,42,0.00,40.00,0,0,0,0.00
2013-6-20,64.4,56.0,47.7,38.2,34.9,27.9,61,46,34,0.00,40.00,0,0,0,0.00
2013-6-21,68.6,60.0,52.9,40.5,37.0,32.1,51,43,33,0.00,40.00,0,0,0,0.00
2013-6-22,72.5,63.4,55.3,40.2,36.5,31.3,46,37,29,0.00,40.00,0,0,0,0.00
2013-6-23,68.6,60.7,54.4,45.1,39.2,35.7,66,46,34,0.00,40.00,0,0,0,0.00
2013-6-24,58.3,54.3,49.9,49.9,45.7,35.6,86,73,51,0.00,40.00,0,0,0,0.00
2013-6-25,71.1,61.2,52.2,52.6,50.3,47.3,86,69,50,0.00,40.00,0,0,0,0.00
2013-6-26,76.3,67.1,58.3,57.5,54.3,49.6,75,64,51,0.00,40.00,0,0,0,0.00
2013-6-27,85.1,72.2,60.1,60.1,56.7,54.0,80,60,38,0.00,40.00,0,0,0,0.00
2013-6-28,86.0,74.1,61.4,58.7,55.5,52.3,75,54,35,0.00,40.00,0,0,0,0.00
2013-6-29,88.7,76.7,65.9,55.9,53.2,51.0,63,46,28,0.00,40.00,0,0,0,0.00
2013-6-30,92.2,78.8,65.5,56.2,51.6,45.2,65,41,24,0.00,40.00,0,0,0,0.00
2013-7-1,91.4,78.5,68.6,54.4,50.1,44.6,57,39,22,0.00,40.00,0,0,0,0.00
2013-7-2,89.6,77.4,67.9,54.4,48.9,44.9,47,38,22,0.00,40.00,0,0,0,0.00
2013-7-3,85.9,77.5,71.8,53.6,49.2,44.2,48,37,30,0.00,40.00,0,0,0,0.00
2013-7-4,88.6,78.3,68.2,57.2,54.4,50.5,59,45,33,0.00,40.00,0,0,0,0.00
2013-7-5,87.3,76.2,67.5,55.3,50.8,43.4,57,42,32,0.00,40.00,0,0,0,0.00
2013-7-6,86.6,73.3,64.4,47.9,40.6,33.6,53,32,17,0.00,40.00,0,0,0,0.00
2013-7-7,85.5,73.8,63.7,39.3,33.0,26.1,38,25,12,0.00,40.00,0,0,0,0.00
2013-7-8,85.5,72.9,61.6,32.7,29.3,26.8,29,21,13,0.00,0.00,0,0,0,0.00
2013-7-9,86.2,74.4,63.2,35.7,30.4,26.2,30,21,14,24.29,24.29,0,0,0,0.00
2013-7-19,85.7,84.5,83.3,41.1,40.7,40.2,22,22,21,0.00,40.00,0,0,0,0.00
2013-7-20,89.8,74.8,63.7,45.5,39.6,34.2,36,29,20,0.00,0.00,0,0,0,0.00
2013-7-21,84.2,71.0,65.9,47.3,43.3,41.4,42,37,28,24.13,24.13,0,0,0,0.00
2013-7-26,68.4,68.4,68.4,59.8,59.8,59.8,74,74,74,0.00,40.00,0,0,0,0.00
2013-7-27,79.4,70.8,63.2,58.0,54.7,51.9,73,58,40,0.00,0.00,0,0,0,0.02
2013-7-28,81.2,72.4,63.7,51.2,47.8,43.8,55,43,31,24.13,24.13,0,0,0,0.00
2013-7-29,82.1,72.5,59.8,49.2,44.5,40.9,51,38,25,0.00,0.00,0,0,0,0.00
2013-7-30,83.5,71.0,59.0,47.2,44.9,42.4,54,41,28,24.26,24.26,0,0,0,0.00
2013-7-31,82.8,70.0,57.2,48.9,42.5,33.7,57,40,18,0.00,0.00,0,0,0,0.00
2013-8-1,73.8,65.1,58.3,44.3,38.6,33.4,50,38,31,24.19,0.00,0,0,0,0.00
2013-8-2,77.0,66.4,57.8,34.9,31.1,21.8,35,27,21,24.13,0.00,0,0,0,0.00
2013-8-3,79.7,67.9,58.3,36.2,32.2,26.8,38,28,16,24.15,24.15,0,0,0,0.00
2013-8-4,81.7,69.0,56.7,37.8,32.9,28.9,39,28,18,24.19,0.00,0,0,0,0.00
2013-8-5,78.5,68.2,57.6,39.7,34.9,28.7,40,30,23,0.00,0.00,0,0,0,0.00
2013-8-6,79.4,68.8,60.1,43.4,41.2,37.5,54,38,26,24.18,0.00,0,0,0,0.00
2013-8-7,70.7,63.1,56.3,45.3,41.6,37.6,57,46,37,24.19,0.00,0,0,0,0.00
2013-8-8,71.6,61.4,52.7,44.7,41.0,34.9,64,48,29,24.14,0.00,0,0,0,0.00
2013-8-9,73.1,61.9,52.9,45.7,43.4,40.8,69,52,37,24.10,0.00,0,0,0,0.00
2013-8-10,70.2,62.7,55.3,45.4,42.6,39.2,60,49,39,0.00,0.00,0,0,0,0.00
2013-8-11,74.7,62.1,53.3,48.9,42.2,37.0,60,49,35,0.00,0.00,0,0,0,0.00
2013-8-12,77.8,65.5,54.4,45.4,43.8,41.3,65,48,30,0.00,0.00,0,0,0,0.00
2013-8-13,85.0,68.9,56.5,45.0,41.2,30.9,57,40,15,0.00,0.00,0,0,0,0.00
2013-8-14,81.9,69.3,57.8,43.1,40.3,35.5,49,36,21,0.00,0.00,0,0,0,0.00
2013-8-15,86.8,71.0,58.7,42.0,35.9,30.9,45,29,18,0.00,0.00,0,0,0,0.00
2013-8-16,83.3,68.6,0.0,48.7,37.3,0.0,37,29,25,24.23,0.00,0,0,0,0.00
2013-8-17,84.8,72.4,63.5,48.1,43.6,39.0,48,37,25,0.00,0.00,0,0,0,0.00
2013-8-18,89.3,72.1,60.3,48.5,42.3,36.2,51,37,19,24.19,24.19,0,0,0,0.00
2013-8-19,85.7,67.5,60.7,60.3,51.3,45.0,91,59,32,24.22,24.22,0,0,0,0.97
2013-8-20,84.4,68.1,55.3,57.1,52.9,49.7,88,63,30,0.00,0.00,0,0,0,0.30
2013-8-21,86.8,71.2,62.1,48.3,44.1,40.3,51,39,24,24.17,24.17,0,0,0,0.00
2013-8-22,84.8,71.5,62.1,46.6,42.3,37.6,52,38,19,0.00,0.00,0,0,0,0.00
2013-8-23,79.0,66.5,57.2,42.8,39.0,36.7,48,38,26,24.13,0.00,0,0,0,0.00
2013-8-24,76.9,65.0,54.4,44.6,40.1,36.9,62,42,26,24.10,24.10,0,0,0,0.00
2013-8-25,77.2,64.7,54.0,44.0,36.6,27.2,50,37,19,24.15,24.15,0,0,0,0.00
2013-8-26,79.4,64.9,55.6,50.0,39.7,30.5,48,40,30,24.20,0.00,0,0,0,0.00
2013-8-27,75.6,65.2,57.4,56.8,53.1,49.3,79,66,50,0.00,0.00,0,0,0,0.00
2013-8-28,82.8,68.3,58.5,55.5,51.6,49.9,78,58,34,24.13,24.13,0,0,0,0.00
2013-8-29,81.7,69.9,60.5,51.6,47.1,43.6,57,46,33,0.00,0.00,0,0,0,0.00
2013-8-30,83.7,70.0,60.8,53.7,50.0,46.5,63,50,36,24.26,0.00,0,0,0,0.00
2013-8-31,79.7,70.4,62.6,52.6,50.2,48.6,62,50,39,24.22,0.00,0,0,0,0.00
2013-9-1,78.1,69.3,63.7,53.1,48.4,45.7,53,48,40,24.18,24.18,0,0,0,0.00
2013-9-2,79.6,69.5,62.3,56.3,52.7,51.0,69,56,41,24.18,24.18,0,0,0,0.00
2013-9-3,79.7,65.9,0.0,56.0,49.3,0.0,65,51,40,24.17,24.17,0,0,0,0.00
2013-9-4,83.5,70.2,61.0,52.0,49.6,47.2,65,50,33,0.00,0.00,0,0,0,0.00
2013-9-5,82.6,70.1,60.5,48.7,46.1,43.4,55,44,29,0.00,0.00,0,0,0,0.00
2013-9-6,83.9,71.2,60.8,44.0,41.9,39.3,50,37,21,0.00,0.00,0,0,0,0.00
2013-9-7,83.0,70.1,59.9,41.3,35.8,28.3,44,31,16,0.00,0.00,0,0,0,0.00
2013-9-8,81.7,70.9,61.7,43.5,36.9,33.8,39,30,21,24.14,0.00,0,0,0,0.00
2013-9-9,79.2,69.1,60.8,46.0,43.6,41.4,53,41,29,0.00,0.00,0,0,0,0.00
2013-9-10,78.8,68.3,58.9,44.8,41.4,37.6,50,38,30,24.06,24.06,0,0,0,0.00
2013-9-11,72.7,64.7,58.5,47.1,42.4,38.6,50,44,38,0.00,0.00,0,0,0,0.00
2013-9-12,76.1,64.8,55.1,49.7,43.8,38.2,55,47,38,24.15,24.15,0,0,0,0.00
2013-9-13,79.4,65.0,55.1,51.5,47.6,44.3,67,55,34,24.12,0.00,0,0,0,0.00
2013-9-14,83.0,67.8,57.6,50.0,46.8,44.6,64,49,29,0.00,0.00,0,0,0,0.00
2013-9-15,84.4,69.5,58.9,49.2,42.6,38.1,58,41,23,0.00,0.00,0,0,0,0.00
2013-9-16,86.2,69.1,59.4,42.2,38.2,35.4,46,34,17,24.12,0.00,0,0,0,0.00
2013-9-17,69.3,61.7,55.4,48.8,41.2,32.2,58,47,36,0.00,0.00,0,0,0,0.00
2013-9-18,70.6,58.1,48.4,45.2,41.3,36.4,71,55,39,0.00,0.00,0,0,0,0.00
2013-9-19,82.6,61.0,0.0,36.6,26.9,0.0,55,29,10,0.00,0.00,0,0,0,0.00
2013-9-20,77.6,64.5,55.3,39.2,31.7,25.2,38,30,19,24.06,0.00,0,0,0,0.00
2013-9-21,57.6,54.3,50.0,44.4,39.8,36.3,65,58,49,24.02,24.02,0,0,0,0.00
2013-9-22,54.2,44.8,39.2,40.6,37.0,33.7,85,74,59,23.95,23.95,0,0,0,0.00
2013-9-23,74.9,55.6,41.6,42.9,35.1,30.8,83,52,21,24.12,24.12,0,0,0,0.00
2013-9-24,72.4,59.9,50.6,37.4,30.7,25.1,44,34,22,24.14,0.00,0,0,0,0.00
2013-9-25,54.0,48.5,42.7,41.9,39.2,34.4,90,71,57,0.00,0.00,0,0,0,0.00
2013-9-26,50.4,41.8,36.7,32.6,31.1,29.0,78,66,50,23.86,23.86,0,0,0,0.00
2013-9-27,61.0,45.7,34.9,32.0,29.9,27.3,76,57,33,24.11,0.00,0,0,0,0.00
2013-9-28,70.6,54.0,42.7,29.0,24.1,17.9,52,34,16,0.00,0.00,0,0,0,0.00
2013-9-29,68.4,57.7,48.6,31.4,26.0,20.6,37,30,23,0.00,0.00,0,0,0,0.00
2013-9-30,65.2,57.2,51.5,43.4,34.6,30.5,54,43,34,0.00,0.00,0,0,0,0.00
2013-10-1,65.3,56.4,49.5,47.4,42.4,38.6,73,60,47,24.10,24.10,0,0,0,0.00
2013-10-2,63.0,53.9,48.6,47.3,44.4,41.4,86,71,52,0.00,0.00,0,0,0,0.00
2013-10-3,53.3,48.8,43.4,39.3,33.7,30.7,69,56,46,0.00,0.00,0,0,0,0.00
2013-10-4,64.3,48.8,38.2,29.0,17.2,6.9,62,35,11,24.13,0.00,0,0,0,0.00
2013-10-5,70.6,52.4,40.3,14.5,10.9,8.6,29,21,9,24.30,24.30,0,0,0,0.02
2013-10-6,73.1,56.8,45.0,13.4,10.2,8.4,24,16,6,0.00,0.00,0,0,0,0.02
2013-10-7,69.1,57.2,49.0,17.3,11.5,6.7,24,17,11,0.00,0.00,0,0,0,0.00
2013-10-8,62.8,54.1,47.9,26.1,22.1,19.2,36,29,21,0.00,0.00,0,0,0,0.00
2013-10-9,46.6,40.1,34.2,32.8,30.8,29.0,89,70,51,23.79,0.00,0,0,0,0.04
2013-10-10,50.6,38.4,29.3,36.7,31.5,26.3,90,77,59,23.93,23.93,0,0,0,0.04
2013-10-11,63.7,46.8,36.7,35.8,31.9,29.8,77,60,28,0.00,0.00,0,0,0,0.00
2013-10-12,60.1,47.6,38.5,34.6,31.4,28.5,68,55,34,24.09,24.09,0,0,0,0.00
2013-10-13,50.9,45.0,39.4,37.7,35.9,33.9,83,71,54,0.00,0.00,0,0,0,0.00
2013-10-14,61.0,47.2,38.2,35.3,28.2,23.6,77,52,24,24.20,0.00,0,0,0,0.00
2013-10-15,62.6,49.7,40.5,29.2,25.3,23.3,59,41,24,0.00,0.00,0,0,0,0.00
2013-10-16,63.4,48.7,39.2,25.8,20.1,16.8,44,34,18,0.00,0.00,0,0,0,0.00
2013-10-17,62.8,52.0,43.2,30.3,24.5,17.6,46,35,29,0.00,0.00,0,0,0,0.00
2013-10-18,69.1,54.1,44.3,28.4,22.3,14.3,52,33,13,24.20,0.00,0,0,0,0.00
2013-10-25,65.9,64.7,63.4,33.7,33.3,32.9,32,31,30,0.00,40.00,0,0,0,0.00
2013-10-26,72.2,57.8,48.6,25.5,22.3,18.4,38,27,15,0.00,0.00,0,0,0,0.00
2013-10-27,65.2,54.9,49.0,31.8,23.0,17.8,34,29,19,24.16,0.00,0,0,0,0.00
2013-10-28,40.0,33.3,31.3,32.7,30.9,29.5,93,91,75,0.00,0.00,0,0,0,0.19
2013-10-29,36.4,33.6,31.7,33.0,31.4,30.2,94,92,87,0.00,0.00,0,0,0,0.86
2013-10-30,48.1,36.2,29.5,37.3,31.9,27.7,94,85,62,24.09,24.09,0,0,0,0.49
2013-10-31,57.1,42.4,33.7,30.4,27.7,23.0,87,61,27,24.20,0.00,0,0,0,0.02
2013-11-1,63.9,47.7,38.7,32.0,26.6,24.8,60,46,25,0.00,0.00,0,0,0,0.00
2013-11-2,62.8,48.2,40.0,29.1,26.1,23.4,53,44,27,0.00,0.00,0,0,0,0.00
2013-11-3,53.6,45.5,41.0,38.7,33.7,28.1,77,64,49,24.02,0.00,0,0,0,0.00
2013-11-4,49.9,38.9,33.5,35.6,31.4,28.2,89,76,58,23.93,23.93,0,0,0,0.00
2013-11-5,51.8,39.3,32.2,26.9,21.8,14.1,77,55,24,0.00,0.00,0,0,0,0.00
2013-11-6,61.2,45.6,35.6,24.6,16.8,13.3,42,33,21,0.00,0.00,0,0,0,0.00
2013-11-7,61.0,49.5,41.0,26.9,23.4,19.9,47,37,25,0.00,0.00,0,0,0,0.00
2013-11-8,66.6,52.0,42.5,27.2,24.0,17.8,44,34,22,0.00,0.00,0,0,0,0.00
2013-11-9,63.5,51.5,43.7,25.8,18.5,11.8,34,28,19,24.16,24.16,0,0,0,0.00
2013-11-10,63.9,51.8,43.2,22.6,16.5,13.9,33,26,16,24.24,0.00,0,0,0,0.00
2013-11-11,67.7,52.6,43.0,23.0,18.1,14.5,33,27,17,0.00,0.00,0,0,0,0.00
2013-11-12,64.1,55.1,49.3,25.2,19.9,14.0,29,25,21,24.36,24.36,0,0,0,0.00
2013-11-13,67.1,54.3,46.4,35.9,29.3,21.5,46,39,26,24.29,0.00,0,0,0,0.00
2013-11-14,64.3,52.8,45.5,32.2,28.7,25.8,50,40,25,0.00,0.00,0,0,0,0.00
2013-11-15,45.7,42.6,39.1,36.7,34.0,30.8,80,72,60,23.87,0.00,0,0,0,0.00
2013-11-16,43.6,38.6,33.8,35.9,33.3,29.7,88,81,71,0.00,0.00,0,0,0,0.00
2013-11-17,51.7,41.8,32.4,32.9,30.0,26.3,80,64,46,0.00,0.00,0,0,0,0.00
2013-11-18,52.9,42.8,35.8,36.0,32.6,28.5,78,68,50,0.00,0.00,0,0,0,0.00
2013-11-19,46.1,40.6,36.4,36.2,33.9,31.8,84,77,68,24.07,0.00,0,0,0,0.00
2013-11-20,46.6,41.5,38.3,39.8,36.9,34.0,90,84,77,23.98,0.00,0,0,0,0.00
2013-11-21,41.4,39.9,38.2,39.1,37.6,34.3,94,92,85,0.00,0.00,0,0,0,1.40
2013-11-22,34.2,32.8,31.5,28.5,24.1,16.9,82,71,51,24.01,0.00,0,0,0,0.75
2013-11-23,41.0,32.9,0.0,22.6,14.6,0.0,48,17,1,0.00,0.00,0,0,0,0.06
2013-11-24,45.0,36.2,29.7,31.2,18.1,3.5,58,16,1,24.14,24.14,0,0,0,0.06
2013-11-25,52.6,39.9,31.9,36.8,23.5,13.8,57,23,1,0.00,0.00,0,0,0,0.00
2013-11-26,55.3,43.8,37.4,32.7,26.3,18.9,58,51,37,24.29,0.00,0,0,0,0.00
2013-11-27,51.3,42.4,37.1,32.8,27.5,24.1,59,56,47,0.00,0.00,0,0,0,0.00
2013-11-28,47.3,39.6,34.9,30.1,17.8,2.6,58,42,25,24.04,24.04,0,0,0,0.00
2013-11-29,49.3,39.9,34.0,30.9,21.9,12.7,58,48,39,24.19,24.19,0,0,0,0.00
2013-11-30,51.3,41.5,34.6,31.5,23.8,17.4,56,50,39,24.27,0.00,0,0,0,0.00
2013-12-1,55.4,43.9,36.2,33.3,25.9,22.1,59,50,34,0.00,0.00,0,0,0,0.00
2013-12-2,58.3,49.3,42.1,26.8,22.6,17.8,49,36,23,24.25,24.25,0,0,0,0.00
2013-12-3,41.9,38.2,34.6,24.8,17.6,5.0,55,19,1,0.00,0.00,0,0,0,0.21
2013-12-4,29.9,24.5,20.5,27.5,14.7,3.7,47,22,1,23.87,0.00,0,0,0,0.08
2013-12-5,28.4,22.3,18.4,29.2,18.7,0.8,55,21,1,23.93,0.00,0,0,0,0.00
2013-12-6,32.4,24.5,17.1,14.8,7.2,1.2,59,48,33,0.00,0.00,0,0,0,0.00
2013-12-7,25.9,23.2,20.2,26.8,17.2,0.3,56,18,1,23.84,23.84,0,0,0,0.00
2013-12-8,26.1,19.6,13.1,12.5,4.9,0.0,57,50,38,0.00,0.00,0,0,0,0.00
2013-12-9,31.3,21.4,14.2,9.5,6.0,0.3,59,44,35,24.18,24.18,0,0,0,0.00
2013-12-10,42.5,30.3,20.7,15.6,10.2,5.8,55,44,29,0.00,0.00,0,0,0,0.19
2013-12-11,44.8,34.7,28.1,21.0,15.9,12.5,54,46,37,24.22,0.00,0,0,0,0.19
2013-12-12,47.9,37.9,30.6,16.9,14.9,12.0,52,40,27,0.00,0.00,0,0,0,0.08
2013-12-13,46.4,38.0,30.6,20.6,15.8,12.1,53,41,28,0.00,0.00,0,0,0,0.02
2013-12-14,48.1,36.6,30.4,19.7,17.5,16.1,56,47,31,0.00,0.00,0,0,0,0.00
2013-12-15,53.6,42.2,35.6,24.1,20.8,17.6,52,43,29,0.00,0.00,0,0,0,0.00
2013-12-16,56.9,46.3,40.0,29.4,24.5,21.8,49,43,33,0.00,0.00,0,0,0,0.00
2013-12-17,57.8,47.9,42.3,28.2,23.5,20.7,45,39,27,24.34,0.00,0,0,0,0.00
2013-12-18,54.7,49.5,45.9,31.0,25.9,23.2,49,40,32,24.14,24.14,0,0,0,0.00
2013-12-19,40.7,32.7,28.8,22.3,19.4,17.2,56,14,1,0.00,0.00,0,0,0,0.04
2013-12-20,38.5,30.1,25.6,23.6,19.7,9.3,31,3,1,0.00,0.00,0,0,0,0.04
2013-12-21,43.2,34.8,29.5,25.9,12.3,0.2,50,31,11,23.99,0.00,0,0,0,0.04
2013-12-22,47.9,39.4,33.7,28.5,15.9,0.1,52,32,11,0.00,0.00,0,0,0,0.00
2013-12-23,51.7,41.0,34.2,29.9,19.2,6.0,51,42,29,0.00,0.00,0,0,0,0.00